Location: Biltmore Gardens
(41.6070°N, 83.4666°W)
Time: 14:17:16
(UTC+00:00)

Cosmos 1633 Rocket - Pass Details

Date: 14 July 2020
Orbit: 608 x 623 km, 82.5° (Epoch: 05 August)

Event Time Altitude Azimuth Distance (km) Brightness Sun altitude
Exits shadow 06:11:53 55° 319° (NW) 747 3.5 -26.4°
Drops below altitude 10° 06:15:40 10° 1° (N) 1,997 6.7 -26.3°
Sets 06:17:56 0° 5° (N) 2,910 7.8 -26.2°
